Location: Moscow
(38.8570°N, 84.2291°W)
Time: 06:19:48
(UTC+00:00)

Daily predictions for brighter satellites

Satellite Brightness Start Highest point End
(mag) Time Altitude Azimuth Time Altitude Azimuth Time Altitude Azimuth
OAO 2 Rocket 4.0 22:47:24 10° WSW 22:52:13 49° S 22:57:09 10° E
Cosmos 1869 3.9 22:52:16 10° SSE 22:55:22 29° E 22:58:28 10° NNE
Tiangong 0.1 22:53:14 10° W 22:55:55 25° SSW 22:58:35 10° SSE
ARIANE 5 R/B 2.6 22:52:05 10° SSE 22:56:55 54° ENE 23:01:46 10° N
DNEPR-1 R/B 3.8 22:53:21 10° NNW 22:57:57 68° ENE 23:03:22 10° SE
Cosmos 44 Rocket 4.0 22:53:48 10° S 22:58:02 34° ESE 23:02:23 10° NE
Timation 2 Rocket 4.4 22:53:44 10° S 23:00:20 55° ESE 23:07:01 10° NNE
SMAP 3.0 22:55:51 10° SSE 23:00:28 72° ENE 23:05:07 10° N
AQUARIUS 4.3 23:05:32 10° SSE 23:09:46 49° ENE 23:14:02 10° N
Cosmos 2061 Rocket 4.1 23:03:27 10° S 23:09:47 87° W 23:16:05 10° N
Cosmos 1782 Rocket 4.1 23:05:45 10° SSW 23:10:08 64° W 23:14:33 10° N
SL-4 R/B 2.9 23:09:30 10° WNW 23:12:47 42° SW 23:16:14 10° SSE
Landsat 7 3.7 23:08:52 10° SSE 23:13:28 70° ENE 23:18:06 10° N
Cosmos 2233 Rocket 4.4 23:09:57 10° SSW 23:16:11 69° W 23:22:31 10° N
Meteor 2-12 Rocket 4.5 23:13:03 10° N 23:19:01 55° E 23:24:56 10° SSE
CORIOLIS 4.5 23:14:27 10° S 23:19:47 71° WSW 23:25:09 10° NNW
SPOT 1/Viking Rocket 4.0 23:18:01 10° SE 23:22:45 38° ENE 23:27:31 10° N
Cosmos 407 Rocket 3.4 23:19:40 10° SSW 23:24:53 85° ESE 23:30:04 10° NNE
CZ-2D R/B 3.0 23:22:42 10° S 23:25:51 69° W 23:28:59 10° NNW
ISS -2.9 23:22:38 10° WSW 23:25:51 43° NW 23:28:15 16° NE
Geosat FO 4.5 23:23:15 10° SE 23:25:59 37° ENE 23:28:40 10° N
SL-12 R/B(2) 4.3 23:19:48 10° SSW 23:27:29 87° WNW 23:36:49 10° NNE
Cosmos 1943 Rocket 2.1 23:23:45 10° SSW 23:29:22 80° ESE 23:34:58 10° NNE
Cosmos 1464 Rocket 4.3 23:23:42 10° SSE 23:29:35 42° E 23:35:25 10° NNE
Cosmos 2278 Rocket 2.1 23:24:06 10° SSW 23:29:44 77° ESE 23:35:24 10° NNE
Cosmos 371 Rocket 4.4 23:26:03 10° SSE 23:29:46 23° E 23:31:10 20° ENE
Cosmos 2082 Rocket 3.1 23:25:33 10° N 23:30:11 26° ENE 23:33:06 17° E
OAO 3 Rocket 3.8 23:25:46 10° WSW 23:30:12 44° S 23:33:15 18° ESE
Cosmos 2151 Rocket 4.2 23:26:30 10° SSE 23:30:30 34° E 23:34:34 10° NNE
IRS-1C 4.4 23:25:59 10° S 23:31:16 72° WSW 23:36:36 10° NNW
Aureole 3 Rocket 2.1 23:28:20 10° S 23:31:27 58° E 23:34:27 10° NNE
SJ-6F 4.2 23:29:15 10° SSE 23:33:09 84° ENE 23:37:05 10° N
Cosmos 1975 Rocket 3.2 23:29:10 10° N 23:33:31 75° W 23:37:52 10° S
ATLAS 5 CENTAUR R/B 1.9 23:31:43 10° NNW 23:36:25 89° NE 23:42:15 10° SSE
CZ-4 R/B 4.4 23:32:58 10° SSE 23:36:51 54° ENE 23:40:44 10° N
Sich 1 Rocket 4.5 23:35:06 10° SSE 23:38:54 27° E 23:40:00 24° ENE
MOS 1 Rocket 2.9 23:35:26 10° SSE 23:39:40 77° ENE 23:44:04 10° N
COSMO-SKYMED 1 2.6 23:36:14 10° NNE 23:40:14 48° E 23:44:13 10° S
USA 215 3.4 23:34:54 10° SE 23:41:26 78° SW 23:48:00 10° NW
Spot 4 Rocket 4.2 23:36:46 10° SE 23:41:37 48° ENE 23:46:31 10° N
SKYMED 2 3.5 23:40:13 10° NNE 23:44:34 83° E 23:48:55 10° S
Helios 1A Rocket 2.4 23:43:02 21° NNE 23:45:05 58° ESE 23:48:25 10° S
Timation 1 Rocket 4.4 23:39:34 10° NNW 23:45:26 56° ENE 23:51:16 10° SE
Okean 1 Rocket 3.8 23:42:06 10° SSE 23:45:59 31° E 23:46:31 30° ENE
RESURS DK-1 2.2 23:51:31 10° NNW 23:55:29 58° ENE 23:57:10 31° SE
